Weather History for Olympia, WA

Change the Weather History Date:

Saturday, January 19, 2013

  Actual Average Record
Temperature  
Mean Temperature 35 °F 40 °F  
Max Temperature 37 °F 46 °F 64 °F (2005)
Min Temperature 32 °F 34 °F 15 °F (1984)
Degree Days  
Heating Degree Days 30 25  
Month to date heating degree days 564 485  
Since 1 July heating degree days 2727 2755  
Cooling Degree Days 0 0  
Month to date cooling degree days 0 0  
Year to date cooling degree days 0 0  
Moisture  
Dew Point 34 °F    
Average Humidity 93    
Maximum Humidity 100    
Minimum Humidity 85    
Precipitation  
Precipitation 0.00 in 0.27 in 2.47 in (1967)
Month to date precipitation 2.79 4.97  
Year to date precipitation 2.79 4.97  
Sea Level Pressure  
Sea Level Pressure 30.35 in    
Wind  
Wind Speed 5 mph (ENE)    
Max Wind Speed 10 mph    
Max Gust Speed 12 mph    
Visibility 2 miles    
Events Fog    
T = Trace of Precipitation, MM = Missing Value Source: NWS Daily Summary

Daily Weather History Graph

Daily Weather History Graph

Search for Another Location

Airport:

Trip Planner

Search our weather history database for the weather conditions in past years. The results will help you decide how hot, cold, wet, or windy it might be!

Date:

Astronomy

Jan. 19, 2013 Rise Set
Actual Time 7:49 AM PST 4:55 PM PST
Civil Twilight 7:15 AM PST 5:29 PM PST
Nautical Twilight 6:38 AM PST 6:07 PM PST
Astronomical Twilight 6:02 AM PST 6:43 PM PST
Moon 11:29 AM PST (1/19) 1:23 AM PST (1/19)
Length of Visible Light 10h 13m
Length of Day
9h 06m
First Quarter, 58% of the Moon is Illuminated
Jan 19
First Quarter
Jan 26
Full
Feb 3
Last Quarter
Feb 9
New
Feb 17
First Quarter

Hourly Weather History & Observations

Time (PST) Temp. Windchill Dew Point Humidity Pressure Visibility Wind Dir Wind Speed Gust Speed Precip Events Conditions
12:28 AM 35.1 °F 31.0 °F 34.0 °F 96% 30.33 in 1.8 mi NE 4.6 mph - N/A   Overcast
12:35 AM 35.1 °F 31.0 °F 34.0 °F 96% 30.33 in 2.5 mi ENE 4.6 mph - N/A   Overcast
12:54 AM 35.1 °F 31.0 °F 34.0 °F 96% 30.34 in 1.8 mi East 4.6 mph - N/A   Overcast
1:15 AM 35.1 °F 30.1 °F 35.1 °F 100% 30.33 in 2.0 mi NE 5.8 mph - N/A   Overcast
1:54 AM 35.1 °F 29.3 °F 35.1 °F 100% 30.35 in 1.8 mi ENE 6.9 mph - N/A   Overcast
2:07 AM 35.1 °F 31.0 °F 35.1 °F 100% 30.34 in 2.0 mi ENE 4.6 mph - N/A   Overcast
2:14 AM 35.1 °F 30.1 °F 35.1 °F 100% 30.34 in 1.2 mi ESE 5.8 mph - N/A   Overcast
2:22 AM 34.0 °F 29.8 °F 34.0 °F 100% 30.34 in 0.5 mi East 4.6 mph - N/A Fog Fog
2:54 AM 34.0 °F 31.0 °F 34.0 °F 100% 30.35 in 0.8 mi East 3.5 mph - N/A   Mist
3:54 AM 33.1 °F 28.7 °F 33.1 °F 100% 30.35 in 0.5 mi ESE 4.6 mph - N/A Fog Fog
4:25 AM 33.1 °F 30.0 °F 33.1 °F 100% 30.34 in 0.2 mi ESE 3.5 mph - N/A Fog Fog
4:54 AM 34.0 °F 29.8 °F 33.1 °F 96% 30.35 in 0.5 mi NNE 4.6 mph - N/A Fog Fog
5:15 AM 34.0 °F 28.0 °F 34.0 °F 100% 30.34 in 1.2 mi NNE 6.9 mph - N/A   Overcast
5:26 AM 34.0 °F 29.8 °F 34.0 °F 100% 30.34 in 0.5 mi East 4.6 mph - N/A Fog Fog
5:54 AM 34.0 °F 28.8 °F 33.1 °F 96% 30.35 in 0.8 mi NE 5.8 mph - N/A   Mist
6:10 AM 34.0 °F 29.8 °F 33.1 °F 96% 30.35 in 1.2 mi NE 4.6 mph - N/A   Overcast
6:28 AM 33.1 °F 27.7 °F 33.1 °F 100% 30.35 in 1.5 mi ENE 5.8 mph - N/A   Overcast
6:54 AM 33.1 °F 28.7 °F 33.1 °F 100% 30.36 in 1.5 mi ENE 4.6 mph - N/A   Overcast
7:02 AM 33.1 °F 28.7 °F 33.1 °F 100% 30.35 in 0.8 mi ENE 4.6 mph - N/A   Overcast
7:54 AM 33.1 °F 27.7 °F 33.1 °F 100% 30.36 in 0.2 mi ENE 5.8 mph - N/A Fog Fog
8:54 AM 32.0 °F 24.8 °F 32.0 °F 100% 30.38 in 0.8 mi ENE 8.1 mph - N/A   Overcast
9:54 AM 33.1 °F 30.0 °F 32.0 °F 96% 30.39 in 0.2 mi ENE 3.5 mph - N/A Fog Fog
10:54 AM 33.1 °F 30.0 °F 33.1 °F 100% 30.39 in 0.2 mi East 3.5 mph - N/A Fog Fog
11:54 AM 34.0 °F 28.8 °F 34.0 °F 100% 30.37 in 1.0 mi ENE 5.8 mph - N/A   Overcast
12:54 PM 35.1 °F 31.0 °F 34.0 °F 96% 30.36 in 2.0 mi ENE 4.6 mph - N/A   Overcast
12:56 PM 35.1 °F 30.1 °F 34.0 °F 96% 30.35 in 2.0 mi NE 5.8 mph - N/A   Overcast
1:54 PM 35.1 °F 31.0 °F 34.0 °F 96% 30.34 in 3.0 mi NE 4.6 mph - N/A   Overcast
2:09 PM 36.0 °F 30.3 °F 34.0 °F 93% 30.33 in 4.0 mi NNE 6.9 mph - N/A   Overcast
2:54 PM 37.0 °F 31.6 °F 34.0 °F 89% 30.33 in 4.0 mi ENE 6.9 mph - N/A   Overcast
3:54 PM 37.0 °F 32.4 °F 34.0 °F 89% 30.34 in 4.0 mi NE 5.8 mph - N/A   Overcast
4:54 PM 36.0 °F 29.0 °F 34.0 °F 93% 30.35 in 4.0 mi ENE 9.2 mph - N/A   Overcast
5:54 PM 36.0 °F 29.6 °F 34.0 °F 93% 30.35 in 4.0 mi NNE 8.1 mph - N/A   Overcast
6:54 PM 36.0 °F 31.1 °F 34.0 °F 93% 30.36 in 5.0 mi NE 5.8 mph - N/A   Overcast
7:54 PM 36.0 °F 30.3 °F 34.0 °F 93% 30.37 in 5.0 mi ENE 6.9 mph - N/A   Overcast
8:54 PM 36.0 °F 32.1 °F 34.0 °F 93% 30.38 in 5.0 mi ENE 4.6 mph - N/A   Overcast
9:54 PM 36.0 °F 33.3 °F 34.0 °F 93% 30.38 in 6.0 mi ENE 3.5 mph - N/A   Overcast
10:54 PM 36.0 °F 33.3 °F 34.0 °F 93% 30.38 in 5.0 mi ENE 3.5 mph - N/A   Overcast
11:29 PM 35.1 °F 29.3 °F 34.0 °F 96% 30.37 in 4.0 mi ENE 6.9 mph - N/A   Overcast
11:54 PM 35.1 °F 31.0 °F 33.1 °F 92% 30.38 in 3.0 mi ENE 4.6 mph - N/A   Overcast